{"data":{"norad_id":65767,"epoch":"2026-09-20T13:54:53.064576Z","epoch_age_seconds":140062,"freshness":"FRESH","line1":"1 65767U 25217F   26263.57978084  .00001737  00000+0  25687-3 0  9993","line2":"2 65767  51.9004 256.2999 0000633  51.5973 308.5046 14.79925334 53805","mean_motion":14.79925334,"eccentricity":6.33e-5,"inclination_deg":51.9004,"raan_deg":256.2999,"arg_perigee_deg":51.5973,"mean_anomaly_deg":308.5046,"bstar":0.00025687,"rev_number":5380,"period_min":97.3022061936,"perigee_km":629.11624173254,"apogee_km":630.00341615109,"semimajor_km":7007.6968289418,"source":"CELESTRAK","updated_at":"2026-09-21T09:00:15.534774Z"}}